Year,Month,Day,Hour,Minute,Value (Times are PST for temperature in C)
2020,08,07,00,00,15.90
2020,08,07,00,01,15.90
2020,08,07,00,02,15.90
2020,08,07,00,03,15.90
2020,08,07,00,04,15.90
2020,08,07,00,05,15.90
2020,08,07,00,06,15.90
2020,08,07,00,07,15.80
2020,08,07,00,08,15.80
2020,08,07,00,09,15.80
2020,08,07,00,10,15.80
2020,08,07,00,11,15.80
2020,08,07,00,12,15.70
2020,08,07,00,13,15.70
2020,08,07,00,14,15.70
2020,08,07,00,15,15.70
2020,08,07,00,16,15.60
2020,08,07,00,17,15.60
2020,08,07,00,18,15.60
2020,08,07,00,19,15.60
2020,08,07,00,20,15.60
2020,08,07,00,21,15.60
2020,08,07,00,22,15.60
2020,08,07,00,23,15.60
2020,08,07,00,24,15.50
2020,08,07,00,25,15.50
2020,08,07,00,26,15.40
2020,08,07,00,27,15.40
2020,08,07,00,28,15.40
2020,08,07,00,29,15.30
2020,08,07,00,30,15.30
2020,08,07,00,31,15.20
2020,08,07,00,32,15.20
2020,08,07,00,33,15.10
2020,08,07,00,34,15.00
2020,08,07,00,35,15.00
2020,08,07,00,36,15.00
2020,08,07,00,37,15.00
2020,08,07,00,38,15.00
2020,08,07,00,39,15.00
2020,08,07,00,40,15.00
2020,08,07,00,41,15.00
2020,08,07,00,42,15.00
2020,08,07,00,43,15.00
2020,08,07,00,44,15.00
2020,08,07,00,45,15.00
2020,08,07,00,46,14.90
2020,08,07,00,47,14.90
2020,08,07,00,48,14.80
2020,08,07,00,49,14.80
2020,08,07,00,50,14.80
2020,08,07,00,51,14.80
2020,08,07,00,52,14.70
2020,08,07,00,53,14.70
2020,08,07,00,54,14.60
2020,08,07,00,55,14.60
2020,08,07,00,56,14.50
2020,08,07,00,57,14.50
2020,08,07,00,58,14.50
2020,08,07,00,59,14.40
2020,08,07,01,00,14.40
2020,08,07,01,01,14.40
2020,08,07,01,02,14.30
2020,08,07,01,03,14.30
2020,08,07,01,04,14.30
2020,08,07,01,05,14.30
2020,08,07,01,06,14.30
2020,08,07,01,07,14.30
2020,08,07,01,08,14.20
2020,08,07,01,09,14.20
2020,08,07,01,10,14.20
2020,08,07,01,11,14.20
2020,08,07,01,12,14.20
2020,08,07,01,13,14.20
2020,08,07,01,14,14.10
2020,08,07,01,15,14.10
2020,08,07,01,16,14.10
2020,08,07,01,17,14.10
2020,08,07,01,18,14.10
2020,08,07,01,19,14.00
2020,08,07,01,20,14.00
2020,08,07,01,21,14.00
2020,08,07,01,22,13.90
2020,08,07,01,23,13.90
2020,08,07,01,24,13.90
2020,08,07,01,25,13.90
2020,08,07,01,26,13.90
2020,08,07,01,27,13.80
2020,08,07,01,28,13.80
2020,08,07,01,29,13.80
2020,08,07,01,30,13.80
2020,08,07,01,31,13.80
2020,08,07,01,32,13.80
2020,08,07,01,33,13.80
2020,08,07,01,34,13.80
2020,08,07,01,35,13.80
2020,08,07,01,36,13.80
2020,08,07,01,37,13.80
2020,08,07,01,38,13.80
2020,08,07,01,39,13.80
2020,08,07,01,40,13.80
2020,08,07,01,41,13.80
2020,08,07,01,42,13.80
2020,08,07,01,43,13.80
2020,08,07,01,44,13.80
2020,08,07,01,45,13.80
2020,08,07,01,46,13.80
2020,08,07,01,47,13.80
2020,08,07,01,48,13.80
2020,08,07,01,49,13.80
2020,08,07,01,50,13.70
2020,08,07,01,51,13.70
2020,08,07,01,52,13.70
2020,08,07,01,53,13.70
2020,08,07,01,54,13.70
2020,08,07,01,55,13.70
2020,08,07,01,56,13.70
2020,08,07,01,57,13.70
2020,08,07,01,58,13.70
2020,08,07,01,59,13.60
2020,08,07,02,00,13.60
2020,08,07,02,01,13.60
2020,08,07,02,02,13.60
2020,08,07,02,03,13.60
2020,08,07,02,04,13.60
2020,08,07,02,05,13.60
2020,08,07,02,06,13.60
2020,08,07,02,07,13.50
2020,08,07,02,08,13.50
2020,08,07,02,09,13.50
2020,08,07,02,10,13.50
2020,08,07,02,11,13.50
2020,08,07,02,12,13.50
2020,08,07,02,13,13.50
2020,08,07,02,14,13.50
2020,08,07,02,15,13.40
2020,08,07,02,16,13.50
2020,08,07,02,17,13.50
2020,08,07,02,18,13.50
2020,08,07,02,19,13.50
2020,08,07,02,20,13.60
2020,08,07,02,21,13.60
2020,08,07,02,22,13.60
2020,08,07,02,23,13.60
2020,08,07,02,24,13.70
2020,08,07,02,25,13.70
2020,08,07,02,26,13.70
2020,08,07,02,27,13.70
2020,08,07,02,28,13.70
2020,08,07,02,29,13.80
2020,08,07,02,30,13.80
2020,08,07,02,31,13.80
2020,08,07,02,32,13.80
2020,08,07,02,33,13.80
2020,08,07,02,34,13.80
2020,08,07,02,35,13.90
2020,08,07,02,36,13.90
2020,08,07,02,37,13.90
2020,08,07,02,38,13.90
2020,08,07,02,39,13.90
2020,08,07,02,40,13.90
2020,08,07,02,41,13.80
2020,08,07,02,42,13.80
2020,08,07,02,43,13.80
2020,08,07,02,44,13.70
2020,08,07,02,45,13.70
2020,08,07,02,46,13.70
2020,08,07,02,47,13.70
2020,08,07,02,48,13.60
2020,08,07,02,49,13.60
2020,08,07,02,50,13.50
2020,08,07,02,51,13.50
2020,08,07,02,52,13.40
2020,08,07,02,53,13.40
2020,08,07,02,54,13.40
2020,08,07,02,55,13.30
2020,08,07,02,56,13.30
2020,08,07,02,57,13.30
2020,08,07,02,58,13.20
2020,08,07,02,59,13.20
2020,08,07,03,00,13.20
2020,08,07,03,01,13.20
2020,08,07,03,02,13.10
2020,08,07,03,03,13.10
2020,08,07,03,04,13.10
2020,08,07,03,05,13.10
2020,08,07,03,06,13.10
2020,08,07,03,07,13.00
2020,08,07,03,08,13.00
2020,08,07,03,09,13.00
2020,08,07,03,10,12.90
2020,08,07,03,11,12.90
2020,08,07,03,12,12.90
2020,08,07,03,13,12.90
2020,08,07,03,14,12.90
2020,08,07,03,15,12.80
2020,08,07,03,16,12.80
2020,08,07,03,17,12.80
2020,08,07,03,18,12.80
2020,08,07,03,19,12.80
2020,08,07,03,20,12.70
2020,08,07,03,21,12.70
2020,08,07,03,22,12.70
2020,08,07,03,23,12.70
2020,08,07,03,24,12.70
2020,08,07,03,25,12.70
2020,08,07,03,26,12.70
2020,08,07,03,27,12.70
2020,08,07,03,28,12.70
2020,08,07,03,29,12.70
2020,08,07,03,30,12.70
2020,08,07,03,31,12.70
2020,08,07,03,32,12.70
2020,08,07,03,33,12.70
2020,08,07,03,34,12.60
2020,08,07,03,35,12.60
2020,08,07,03,36,12.60
2020,08,07,03,37,12.60
2020,08,07,03,38,12.60
2020,08,07,03,39,12.60
2020,08,07,03,40,12.60
2020,08,07,03,41,12.60
2020,08,07,03,42,12.60
2020,08,07,03,43,12.50
2020,08,07,03,44,12.50
2020,08,07,03,45,12.50
2020,08,07,03,46,12.50
2020,08,07,03,47,12.50
2020,08,07,03,48,12.40
2020,08,07,03,49,12.40
2020,08,07,03,50,12.40
2020,08,07,03,51,12.40
2020,08,07,03,52,12.40
2020,08,07,03,53,12.40
2020,08,07,03,54,12.40
2020,08,07,03,55,12.40
2020,08,07,03,56,12.40
2020,08,07,03,57,12.40
2020,08,07,03,58,12.30
2020,08,07,03,59,12.30
2020,08,07,04,00,12.30
2020,08,07,04,01,12.30
2020,08,07,04,02,12.30
2020,08,07,04,03,12.30
2020,08,07,04,04,12.30
2020,08,07,04,05,12.30
2020,08,07,04,06,12.20
2020,08,07,04,07,12.20
2020,08,07,04,08,12.20
2020,08,07,04,09,12.20
2020,08,07,04,10,12.20
2020,08,07,04,11,12.20
2020,08,07,04,12,12.20
2020,08,07,04,13,12.20
2020,08,07,04,14,12.20
2020,08,07,04,15,12.20
2020,08,07,04,16,12.20
2020,08,07,04,17,12.10
2020,08,07,04,18,12.10
2020,08,07,04,19,12.10
2020,08,07,04,20,12.10
2020,08,07,04,21,12.10
2020,08,07,04,22,12.10
2020,08,07,04,23,12.10
2020,08,07,04,24,12.10
2020,08,07,04,25,12.10
2020,08,07,04,26,12.10
2020,08,07,04,27,12.00
2020,08,07,04,28,12.00
2020,08,07,04,29,12.00
2020,08,07,04,30,12.00
2020,08,07,04,31,12.00
2020,08,07,04,32,12.00
2020,08,07,04,33,11.90
2020,08,07,04,34,11.90
2020,08,07,04,35,11.90
2020,08,07,04,36,11.90
2020,08,07,04,37,11.90
2020,08,07,04,38,11.80
2020,08,07,04,39,11.80
2020,08,07,04,40,11.80
2020,08,07,04,41,11.80
2020,08,07,04,42,11.80
2020,08,07,04,43,11.80
2020,08,07,04,44,11.80
2020,08,07,04,45,11.80
2020,08,07,04,46,11.70
2020,08,07,04,47,11.70
2020,08,07,04,48,11.70
2020,08,07,04,49,11.70
2020,08,07,04,50,11.70
2020,08,07,04,51,11.70
2020,08,07,04,52,11.60
2020,08,07,04,53,11.60
2020,08,07,04,54,11.60
2020,08,07,04,55,11.60
2020,08,07,04,56,11.60
2020,08,07,04,57,11.60
2020,08,07,04,58,11.60
2020,08,07,04,59,11.60
2020,08,07,05,00,11.60
2020,08,07,05,01,11.60
2020,08,07,05,02,11.60
2020,08,07,05,03,11.60
2020,08,07,05,04,11.60
2020,08,07,05,05,11.60
2020,08,07,05,06,11.60
2020,08,07,05,07,11.60
2020,08,07,05,08,11.70
2020,08,07,05,09,11.70
2020,08,07,05,10,11.70
2020,08,07,05,11,11.70
2020,08,07,05,12,11.70
2020,08,07,05,13,11.70
2020,08,07,05,14,11.70
2020,08,07,05,15,11.70
2020,08,07,05,16,11.70
2020,08,07,05,17,11.80
2020,08,07,05,18,11.80
2020,08,07,05,19,11.80
2020,08,07,05,20,11.80
2020,08,07,05,21,11.80
2020,08,07,05,22,11.80
2020,08,07,05,23,11.80
2020,08,07,05,24,11.70
2020,08,07,05,25,11.70
2020,08,07,05,26,11.70
2020,08,07,05,27,11.70
2020,08,07,05,28,11.70
2020,08,07,05,29,11.70
2020,08,07,05,30,11.70
2020,08,07,05,31,11.60
2020,08,07,05,32,11.60
2020,08,07,05,33,11.60
2020,08,07,05,34,11.60
2020,08,07,05,35,11.60
2020,08,07,05,36,11.60
2020,08,07,05,37,11.60
2020,08,07,05,38,11.60
2020,08,07,05,39,11.60
2020,08,07,05,40,11.50
2020,08,07,05,41,11.50
2020,08,07,05,42,11.50
2020,08,07,05,43,11.50
2020,08,07,05,44,11.50
2020,08,07,05,45,11.50
2020,08,07,05,46,11.50
2020,08,07,05,47,11.50
2020,08,07,05,48,11.50
2020,08,07,05,49,11.50
2020,08,07,05,50,11.50
2020,08,07,05,51,11.50
2020,08,07,05,52,11.50
2020,08,07,05,53,11.50
2020,08,07,05,54,11.50
2020,08,07,05,55,11.50
2020,08,07,05,56,11.50
2020,08,07,05,57,11.50
2020,08,07,05,58,11.50
2020,08,07,05,59,11.40
2020,08,07,06,00,11.40
2020,08,07,06,01,11.40
2020,08,07,06,02,11.40
2020,08,07,06,03,11.40
2020,08,07,06,04,11.40
2020,08,07,06,05,11.40
2020,08,07,06,06,11.40
2020,08,07,06,07,11.40
2020,08,07,06,08,11.30
2020,08,07,06,09,11.30
2020,08,07,06,10,11.30
2020,08,07,06,11,11.30
2020,08,07,06,12,11.30
2020,08,07,06,13,11.30
2020,08,07,06,14,11.30
2020,08,07,06,15,11.30
2020,08,07,06,16,11.30
2020,08,07,06,17,11.30
2020,08,07,06,18,11.30
2020,08,07,06,19,11.30
2020,08,07,06,20,11.30
2020,08,07,06,21,11.30
2020,08,07,06,22,11.30
2020,08,07,06,23,11.30
2020,08,07,06,24,11.30
2020,08,07,06,25,11.30
2020,08,07,06,26,11.30
2020,08,07,06,27,11.30
2020,08,07,06,28,11.30
2020,08,07,06,29,11.30
2020,08,07,06,30,11.30
2020,08,07,06,31,11.20
2020,08,07,06,32,11.20
2020,08,07,06,33,11.20
2020,08,07,06,34,11.20
2020,08,07,06,35,11.20
2020,08,07,06,36,11.20
2020,08,07,06,37,11.20
2020,08,07,06,38,11.20
2020,08,07,06,39,11.20
2020,08,07,06,40,11.20
2020,08,07,06,41,11.20
2020,08,07,06,42,11.20
2020,08,07,06,43,11.20
2020,08,07,06,44,11.20
2020,08,07,06,45,11.20
2020,08,07,06,46,11.20
2020,08,07,06,47,11.20
2020,08,07,06,48,11.20
2020,08,07,06,49,11.20
2020,08,07,06,50,11.20
2020,08,07,06,51,11.10
2020,08,07,06,52,11.10
2020,08,07,06,53,11.10
2020,08,07,06,54,11.10
2020,08,07,06,55,11.10
2020,08,07,06,56,11.10
2020,08,07,06,57,11.10
2020,08,07,06,58,11.10
2020,08,07,06,59,11.10
2020,08,07,07,00,11.10
2020,08,07,07,01,11.10
2020,08,07,07,02,11.10
2020,08,07,07,03,11.10
2020,08,07,07,04,11.10
2020,08,07,07,05,11.10
2020,08,07,07,06,11.10
2020,08,07,07,07,11.10
2020,08,07,07,08,11.10
2020,08,07,07,09,11.10
2020,08,07,07,10,11.10
2020,08,07,07,11,11.10
2020,08,07,07,12,11.10
2020,08,07,07,13,11.20
2020,08,07,07,14,11.20
2020,08,07,07,15,11.20
2020,08,07,07,16,11.20
2020,08,07,07,17,11.20
2020,08,07,07,18,11.20
2020,08,07,07,19,11.20
2020,08,07,07,20,11.20
2020,08,07,07,21,11.20
2020,08,07,07,22,11.20
2020,08,07,07,23,11.20
2020,08,07,07,24,11.20
2020,08,07,07,25,11.20
2020,08,07,07,26,11.20
2020,08,07,07,27,11.20
2020,08,07,07,28,11.20
2020,08,07,07,29,11.20
2020,08,07,07,30,11.20
2020,08,07,07,31,11.20
2020,08,07,07,32,11.20
2020,08,07,07,33,11.30
2020,08,07,07,34,11.30
2020,08,07,07,35,11.30
2020,08,07,07,36,11.30
2020,08,07,07,37,11.30
2020,08,07,07,38,11.30
2020,08,07,07,39,11.40
2020,08,07,07,40,11.40
2020,08,07,07,41,11.40
2020,08,07,07,42,11.40
2020,08,07,07,43,11.40
2020,08,07,07,44,11.40
2020,08,07,07,45,11.50
2020,08,07,07,46,11.50
2020,08,07,07,47,11.50
2020,08,07,07,48,11.60
2020,08,07,07,49,11.60
2020,08,07,07,50,11.60
2020,08,07,07,51,11.60
2020,08,07,07,52,11.60
2020,08,07,07,53,11.60
2020,08,07,07,54,11.60
2020,08,07,07,55,11.70
2020,08,07,07,56,11.70
2020,08,07,07,57,11.70
2020,08,07,07,58,11.70
2020,08,07,07,59,11.80
2020,08,07,08,00,11.80
2020,08,07,08,01,11.80
2020,08,07,08,02,11.90
2020,08,07,08,03,11.90
2020,08,07,08,04,11.90
2020,08,07,08,05,11.90
2020,08,07,08,06,11.90
2020,08,07,08,07,12.00
2020,08,07,08,08,12.00
2020,08,07,08,09,12.00
2020,08,07,08,10,12.10
2020,08,07,08,11,12.10
2020,08,07,08,12,12.10
2020,08,07,08,13,12.10
2020,08,07,08,14,12.20
2020,08,07,08,15,12.20
2020,08,07,08,16,12.20
2020,08,07,08,17,12.20
2020,08,07,08,18,12.30
2020,08,07,08,19,12.30
2020,08,07,08,20,12.30
2020,08,07,08,21,12.30
2020,08,07,08,22,12.30
2020,08,07,08,23,12.40
2020,08,07,08,24,12.40
2020,08,07,08,25,12.50
2020,08,07,08,26,12.50
2020,08,07,08,27,12.60
2020,08,07,08,28,12.60
2020,08,07,08,29,12.70
2020,08,07,08,30,12.70
2020,08,07,08,31,12.80
2020,08,07,08,32,12.80
2020,08,07,08,33,12.90
2020,08,07,08,34,12.90
2020,08,07,08,35,13.00
2020,08,07,08,36,13.00
2020,08,07,08,37,13.10
2020,08,07,08,38,13.10
2020,08,07,08,39,13.20
2020,08,07,08,40,13.30
2020,08,07,08,41,13.30
2020,08,07,08,42,13.40
2020,08,07,08,43,13.40
2020,08,07,08,44,13.50
2020,08,07,08,45,13.50
2020,08,07,08,46,13.60
2020,08,07,08,47,13.60
2020,08,07,08,48,13.70
2020,08,07,08,49,13.70
2020,08,07,08,50,13.80
2020,08,07,08,51,13.80
2020,08,07,08,52,13.90
2020,08,07,08,53,14.00
2020,08,07,08,54,14.10
2020,08,07,08,55,14.20
2020,08,07,08,56,14.20
2020,08,07,08,57,14.30
2020,08,07,08,58,14.30
2020,08,07,08,59,14.40
2020,08,07,09,00,14.50
2020,08,07,09,01,14.60
2020,08,07,09,02,14.60
2020,08,07,09,03,14.70
2020,08,07,09,04,14.70
2020,08,07,09,05,14.80
2020,08,07,09,06,14.90
2020,08,07,09,07,14.90
2020,08,07,09,08,15.00
2020,08,07,09,09,15.00
2020,08,07,09,10,15.00
2020,08,07,09,11,15.00
2020,08,07,09,12,15.00
2020,08,07,09,13,15.00
2020,08,07,09,14,15.20
2020,08,07,09,15,15.30
2020,08,07,09,16,15.40
2020,08,07,09,17,15.50
2020,08,07,09,18,15.60
2020,08,07,09,19,15.70
2020,08,07,09,20,15.70
2020,08,07,09,21,15.80
2020,08,07,09,22,15.90
2020,08,07,09,23,16.00
2020,08,07,09,24,16.10
2020,08,07,09,25,16.20
2020,08,07,09,26,16.20
2020,08,07,09,27,16.30
2020,08,07,09,28,16.40
2020,08,07,09,29,16.40
2020,08,07,09,30,16.50
2020,08,07,09,31,16.60
2020,08,07,09,32,16.60
2020,08,07,09,33,16.70
2020,08,07,09,34,16.70
2020,08,07,09,35,16.80
2020,08,07,09,36,16.80
2020,08,07,09,37,16.80
2020,08,07,09,38,16.80
2020,08,07,09,39,16.90
2020,08,07,09,40,16.90
2020,08,07,09,41,16.90
2020,08,07,09,42,16.90
2020,08,07,09,43,16.90
2020,08,07,09,44,16.90
2020,08,07,09,45,16.90
2020,08,07,09,46,16.90
2020,08,07,09,47,16.90
2020,08,07,09,48,17.00
2020,08,07,09,49,17.00
2020,08,07,09,50,17.00
2020,08,07,09,51,17.00
2020,08,07,09,52,17.00
2020,08,07,09,53,17.10
2020,08,07,09,54,17.10
2020,08,07,09,55,17.10
2020,08,07,09,56,17.10
2020,08,07,09,57,17.10
2020,08,07,09,58,17.10
2020,08,07,09,59,17.20
2020,08,07,10,00,17.20
2020,08,07,10,01,17.20
2020,08,07,10,02,17.20
2020,08,07,10,03,17.20
2020,08,07,10,04,17.20
2020,08,07,10,05,17.30
2020,08,07,10,06,17.30
2020,08,07,10,07,17.30
2020,08,07,10,08,17.30
2020,08,07,10,09,17.30
2020,08,07,10,10,17.20
2020,08,07,10,11,17.20
2020,08,07,10,12,17.20
2020,08,07,10,13,17.20
2020,08,07,10,14,17.20
2020,08,07,10,15,17.20
2020,08,07,10,16,17.20
2020,08,07,10,17,17.20
2020,08,07,10,18,17.20
2020,08,07,10,19,17.20
2020,08,07,10,20,17.20
2020,08,07,10,21,17.20
2020,08,07,10,22,17.20
2020,08,07,10,23,17.20
2020,08,07,10,24,17.30
2020,08,07,10,25,17.30
2020,08,07,10,26,17.40
2020,08,07,10,27,17.40
2020,08,07,10,28,17.40
2020,08,07,10,29,17.50
2020,08,07,10,30,17.50
2020,08,07,10,31,17.60
2020,08,07,10,32,17.60
2020,08,07,10,33,17.70
2020,08,07,10,34,17.70
2020,08,07,10,35,17.70
2020,08,07,10,36,17.70
2020,08,07,10,37,17.80
2020,08,07,10,38,17.80
2020,08,07,10,39,17.80
2020,08,07,10,40,17.80
2020,08,07,10,41,17.80
2020,08,07,10,42,17.80
2020,08,07,10,43,17.80
2020,08,07,10,44,17.80
2020,08,07,10,45,17.80
2020,08,07,10,46,17.80
2020,08,07,10,47,17.80
2020,08,07,10,48,17.80
2020,08,07,10,49,17.80
2020,08,07,10,50,17.80
2020,08,07,10,51,17.80
2020,08,07,10,52,17.80
2020,08,07,10,53,17.80
2020,08,07,10,54,17.80
2020,08,07,10,55,17.80
2020,08,07,10,56,17.90
2020,08,07,10,57,17.90
2020,08,07,10,58,17.90
2020,08,07,10,59,17.90
2020,08,07,11,00,17.90
2020,08,07,11,01,17.90
2020,08,07,11,02,17.90
2020,08,07,11,03,17.90
2020,08,07,11,04,17.90
2020,08,07,11,05,18.00
2020,08,07,11,06,18.00
2020,08,07,11,07,18.00
2020,08,07,11,08,18.00
2020,08,07,11,09,18.10
2020,08,07,11,10,18.10
2020,08,07,11,11,18.10
2020,08,07,11,12,18.10
2020,08,07,11,13,18.20
2020,08,07,11,14,18.20
2020,08,07,11,15,18.20
2020,08,07,11,16,18.20
2020,08,07,11,17,18.20
2020,08,07,11,18,18.20
2020,08,07,11,19,18.20
2020,08,07,11,20,18.20
2020,08,07,11,21,18.20
2020,08,07,11,22,18.20
2020,08,07,11,23,18.30
2020,08,07,11,24,18.30
2020,08,07,11,25,18.30
2020,08,07,11,26,18.30
2020,08,07,11,27,18.30
2020,08,07,11,28,18.40
2020,08,07,11,29,18.40
2020,08,07,11,30,18.40
2020,08,07,11,31,18.40
2020,08,07,11,32,18.50
2020,08,07,11,33,18.50
2020,08,07,11,34,18.50
2020,08,07,11,35,18.50
2020,08,07,11,36,18.50
2020,08,07,11,37,18.60
2020,08,07,11,38,18.60
2020,08,07,11,39,18.60
2020,08,07,11,40,18.60
2020,08,07,11,41,18.60
2020,08,07,11,42,18.60
2020,08,07,11,43,18.60
2020,08,07,11,44,18.60
2020,08,07,11,45,18.60
2020,08,07,11,46,18.60
2020,08,07,11,47,18.60
2020,08,07,11,48,18.60
2020,08,07,11,49,18.60
2020,08,07,11,50,18.50
2020,08,07,11,51,18.50
2020,08,07,11,52,18.50
2020,08,07,11,53,18.50
2020,08,07,11,54,18.50
2020,08,07,11,55,18.60
2020,08,07,11,56,18.60
2020,08,07,11,57,18.60
2020,08,07,11,58,18.60
2020,08,07,11,59,18.60
2020,08,07,12,00,18.60
2020,08,07,12,01,18.60
2020,08,07,12,02,18.60
2020,08,07,12,03,18.60
2020,08,07,12,04,18.60
2020,08,07,12,05,18.60
2020,08,07,12,06,18.60
2020,08,07,12,07,18.60
2020,08,07,12,08,18.60
2020,08,07,12,09,18.60
2020,08,07,12,10,18.60
2020,08,07,12,11,18.60
2020,08,07,12,12,18.70
2020,08,07,12,13,18.70
2020,08,07,12,14,18.70
2020,08,07,12,15,18.80
2020,08,07,12,16,18.80
2020,08,07,12,17,18.80
2020,08,07,12,18,18.80
2020,08,07,12,19,18.80
2020,08,07,12,20,18.80
2020,08,07,12,21,18.90
2020,08,07,12,22,18.90
2020,08,07,12,23,18.90
2020,08,07,12,24,18.90
2020,08,07,12,25,18.90
2020,08,07,12,26,18.90
2020,08,07,12,27,19.00
2020,08,07,12,28,19.00
2020,08,07,12,29,19.00
2020,08,07,12,30,19.00
2020,08,07,12,31,19.00
2020,08,07,12,32,19.00
2020,08,07,12,33,19.10
2020,08,07,12,34,19.10
2020,08,07,12,35,19.00
2020,08,07,12,36,19.00
2020,08,07,12,37,19.00
2020,08,07,12,38,19.00
2020,08,07,12,39,19.00
2020,08,07,12,40,19.00
2020,08,07,12,41,19.00
2020,08,07,12,42,19.00
2020,08,07,12,43,19.00
2020,08,07,12,44,19.00
2020,08,07,12,45,19.10
2020,08,07,12,46,19.10
2020,08,07,12,47,19.10
2020,08,07,12,48,19.10
2020,08,07,12,49,19.20
2020,08,07,12,50,19.20
2020,08,07,12,51,19.20
2020,08,07,12,52,19.30
2020,08,07,12,53,19.30
2020,08,07,12,54,19.30
2020,08,07,12,55,19.40
2020,08,07,12,56,19.40
2020,08,07,12,57,19.40
2020,08,07,12,58,19.40
2020,08,07,12,59,19.40
2020,08,07,13,00,19.40
2020,08,07,13,01,19.40
2020,08,07,13,02,19.40
2020,08,07,13,03,19.40
2020,08,07,13,04,19.50
2020,08,07,13,05,19.50
2020,08,07,13,06,19.50
2020,08,07,13,07,19.60
2020,08,07,13,08,19.60
2020,08,07,13,09,19.60
2020,08,07,13,10,19.60
2020,08,07,13,11,19.60
2020,08,07,13,12,19.60
2020,08,07,13,13,19.60
2020,08,07,13,14,19.60
2020,08,07,13,15,19.60
2020,08,07,13,16,19.60
2020,08,07,13,17,19.50
2020,08,07,13,18,19.50
2020,08,07,13,19,19.50
2020,08,07,13,20,19.50
2020,08,07,13,21,19.50
2020,08,07,13,22,19.50
2020,08,07,13,23,19.40
2020,08,07,13,24,19.40
2020,08,07,13,25,19.40
2020,08,07,13,26,19.40
2020,08,07,13,27,19.40
2020,08,07,13,28,19.30
2020,08,07,13,29,19.30
2020,08,07,13,30,19.30
2020,08,07,13,31,19.30
2020,08,07,13,32,19.30
2020,08,07,13,33,19.30
2020,08,07,13,34,19.30
2020,08,07,13,35,19.40
2020,08,07,13,36,19.40
2020,08,07,13,37,19.40
2020,08,07,13,38,19.40
2020,08,07,13,39,19.40
2020,08,07,13,40,19.40
2020,08,07,13,41,19.40
2020,08,07,13,42,19.40
2020,08,07,13,43,19.40
2020,08,07,13,44,19.40
2020,08,07,13,45,19.40
2020,08,07,13,46,19.40
2020,08,07,13,47,19.40
2020,08,07,13,48,19.40
2020,08,07,13,49,19.40
2020,08,07,13,50,19.40
2020,08,07,13,51,19.40
2020,08,07,13,52,19.40
2020,08,07,13,53,19.40
2020,08,07,13,54,19.40
2020,08,07,13,55,19.50
2020,08,07,13,56,19.50
2020,08,07,13,57,19.40
2020,08,07,13,58,19.40
2020,08,07,13,59,19.40
2020,08,07,14,00,19.40
2020,08,07,14,01,19.40
2020,08,07,14,02,19.40
2020,08,07,14,03,19.40
2020,08,07,14,04,19.40
2020,08,07,14,05,19.40
2020,08,07,14,06,19.50
2020,08,07,14,07,19.50
2020,08,07,14,08,19.50
2020,08,07,14,09,19.50
2020,08,07,14,10,19.50
2020,08,07,14,11,19.50
2020,08,07,14,12,19.50
2020,08,07,14,13,19.60
2020,08,07,14,14,19.60
2020,08,07,14,15,19.60
2020,08,07,14,16,19.60
2020,08,07,14,17,19.60
2020,08,07,14,18,19.60
2020,08,07,14,19,19.60
2020,08,07,14,20,19.60
2020,08,07,14,21,19.60
2020,08,07,14,22,19.60
2020,08,07,14,23,19.50
2020,08,07,14,24,19.50
2020,08,07,14,25,19.50
2020,08,07,14,26,19.50
2020,08,07,14,27,19.40
2020,08,07,14,28,19.40
2020,08,07,14,29,19.40
2020,08,07,14,30,19.40
2020,08,07,14,31,19.40
2020,08,07,14,32,19.40
2020,08,07,14,33,19.40
2020,08,07,14,34,19.40
2020,08,07,14,35,19.40
2020,08,07,14,36,19.40
2020,08,07,14,37,19.40
2020,08,07,14,38,19.40
2020,08,07,14,39,19.40
2020,08,07,14,40,19.40
2020,08,07,14,41,19.40
2020,08,07,14,42,19.40
2020,08,07,14,43,19.40
2020,08,07,14,44,19.40
2020,08,07,14,45,19.40
2020,08,07,14,46,19.40
2020,08,07,14,47,19.40
2020,08,07,14,48,19.40
2020,08,07,14,49,19.40
2020,08,07,14,50,19.40
2020,08,07,14,51,19.40
2020,08,07,14,52,19.40
2020,08,07,14,53,19.40
2020,08,07,14,54,19.50
2020,08,07,14,55,19.50
2020,08,07,14,56,19.50
2020,08,07,14,57,19.50
2020,08,07,14,58,19.40
2020,08,07,14,59,19.40
2020,08,07,15,00,19.40
2020,08,07,15,01,19.40
2020,08,07,15,02,19.40
2020,08,07,15,03,19.40
2020,08,07,15,04,19.40
2020,08,07,15,05,19.40
2020,08,07,15,06,19.40
2020,08,07,15,07,19.40
2020,08,07,15,08,19.30
2020,08,07,15,09,19.30
2020,08,07,15,10,19.30
2020,08,07,15,11,19.30
2020,08,07,15,12,19.30
2020,08,07,15,13,19.30
2020,08,07,15,14,19.30
2020,08,07,15,15,19.30
2020,08,07,15,16,19.30
2020,08,07,15,17,19.30
2020,08,07,15,18,19.30
2020,08,07,15,19,19.30
2020,08,07,15,20,19.30
2020,08,07,15,21,19.20
2020,08,07,15,22,19.20
2020,08,07,15,23,19.20
2020,08,07,15,24,19.20
2020,08,07,15,25,19.20
2020,08,07,15,26,19.20
2020,08,07,15,27,19.10
2020,08,07,15,28,19.10
2020,08,07,15,29,19.10
2020,08,07,15,30,19.10
2020,08,07,15,31,19.10
2020,08,07,15,32,19.10
2020,08,07,15,33,19.10
2020,08,07,15,34,19.00
2020,08,07,15,35,19.00
2020,08,07,15,36,19.00
2020,08,07,15,37,19.00
2020,08,07,15,38,18.90
2020,08,07,15,39,18.90
2020,08,07,15,40,18.90
2020,08,07,15,41,18.90
2020,08,07,15,42,18.90
2020,08,07,15,43,18.90
2020,08,07,15,44,18.90
2020,08,07,15,45,18.90
2020,08,07,15,46,18.90
2020,08,07,15,47,18.90
2020,08,07,15,48,18.90
2020,08,07,15,49,18.80
2020,08,07,15,50,18.80
2020,08,07,15,51,18.80
2020,08,07,15,52,18.80
2020,08,07,15,53,18.80
2020,08,07,15,54,18.80
2020,08,07,15,55,18.80
2020,08,07,15,56,18.80
2020,08,07,15,57,18.70
2020,08,07,15,58,18.70
2020,08,07,15,59,18.70
2020,08,07,16,00,18.60
2020,08,07,16,01,18.60
2020,08,07,16,02,18.50
2020,08,07,16,03,18.50
2020,08,07,16,04,18.40
2020,08,07,16,05,18.30
2020,08,07,16,06,18.30
2020,08,07,16,07,18.20
2020,08,07,16,08,18.10
2020,08,07,16,09,18.10
2020,08,07,16,10,17.90
2020,08,07,16,11,17.80
2020,08,07,16,12,17.70
2020,08,07,16,13,17.60
2020,08,07,16,14,17.50
2020,08,07,16,15,17.40
2020,08,07,16,16,17.30
2020,08,07,16,17,17.20
2020,08,07,16,18,17.10
2020,08,07,16,19,17.00
2020,08,07,16,20,16.90
2020,08,07,16,21,16.80
2020,08,07,16,22,16.80
2020,08,07,16,23,16.70
2020,08,07,16,24,16.60
2020,08,07,16,25,16.50
2020,08,07,16,26,16.50
2020,08,07,16,27,16.50
2020,08,07,16,28,16.40
2020,08,07,16,29,16.40
2020,08,07,16,30,16.40
2020,08,07,16,31,16.30
2020,08,07,16,32,16.30
2020,08,07,16,33,16.30
2020,08,07,16,34,16.30
2020,08,07,16,35,16.30
2020,08,07,16,36,16.30
2020,08,07,16,37,16.20
2020,08,07,16,38,16.20
2020,08,07,16,39,16.20
2020,08,07,16,40,16.20
2020,08,07,16,41,16.10
2020,08,07,16,42,16.10
2020,08,07,16,43,16.00
2020,08,07,16,44,16.00
2020,08,07,16,45,16.00
2020,08,07,16,46,15.90
2020,08,07,16,47,15.90
2020,08,07,16,48,15.90
2020,08,07,16,49,15.90
2020,08,07,16,50,15.90
2020,08,07,16,51,15.90
2020,08,07,16,52,15.90
2020,08,07,16,53,15.90
2020,08,07,16,54,16.00
2020,08,07,16,55,16.00
2020,08,07,16,56,16.00
2020,08,07,16,57,16.00
2020,08,07,16,58,16.00
2020,08,07,16,59,16.00
2020,08,07,17,00,16.10
2020,08,07,17,01,16.10
2020,08,07,17,02,16.10
2020,08,07,17,03,16.10
2020,08,07,17,04,16.00
2020,08,07,17,05,16.00
2020,08,07,17,06,16.00
2020,08,07,17,07,16.00
2020,08,07,17,08,16.00
2020,08,07,17,09,15.90
2020,08,07,17,10,15.90
2020,08,07,17,11,15.90
2020,08,07,17,12,15.90
2020,08,07,17,13,15.90
2020,08,07,17,14,15.90
2020,08,07,17,15,15.90
2020,08,07,17,16,15.80
2020,08,07,17,17,15.80
2020,08,07,17,18,15.80
2020,08,07,17,19,15.80